Theta_e
329 331 332 332 333 329 326 324 323 324 324 322 319 319 328 338 328 326 347 349 334 336 342 343 346 346 346 345 348 351 353 358 360 354 351 350 349 359 364 356 355 360 361 366 370 371 367 365 364 367 366 366 365 365 365 365 366 368 369 369 367 367 366 364 362 362 361 360 360 360 360 358 358 358 358 359 358 358 358 359 358 358 358 359 360 360 361
327 330 332 332 331 330 329 328 326 326 326 322 321 324 330 336 333 340 357 350 338 337 336 337 344 346 344 343 343 347 350 353 356 354 352 352 358 373 373 361 359 364 365 368 371 372 370 366 364 367 367 366 366 366 366 365 366 368 369 369 369 367 367 365 364 362 362 361 360 360 360 359 359 359 359 359 358 357 358 359 358 358 357 357 359 360 361
326 329 332 332 331 330 327 328 330 329 327 324 323 324 328 333 330 335 347 344 339 337 336 339 348 348 343 342 342 343 344 348 353 352 351 355 362 371 373 371 375 380 379 379 377 375 372 366 364 366 368 368 366 366 367 366 366 367 368 370 369 368 369 367 365 363 362 361 360 360 360 360 361 360 359 360 358 357 359 359 360 360 359 358 359 360 361
326 326 329 329 329 329 324 325 330 330 326 323 323 324 325 332 332 330 334 335 340 345 343 341 347 346 342 342 345 346 345 346 346 345 349 353 359 366 371 377 385 387 385 386 382 376 370 366 365 365 366 368 368 367 368 367 366 367 367 369 369 369 369 368 367 366 363 362 361 360 359 360 361 361 360 359 358 358 358 359 361 361 360 360 359 359 362
327 325 327 328 326 326 324 325 329 332 331 329 324 324 329 334 333 331 333 339 350 350 342 337 341 340 340 344 346 348 350 347 345 345 346 349 353 362 372 378 380 379 380 382 381 376 370 366 366 365 366 367 368 367 367 369 368 367 367 367 369 368 369 368 368 367 366 364 362 361 361 360 361 362 361 360 359 359 358 359 361 362 363 362 361 360 361
325 323 325 328 326 325 328 331 332 334 334 332 327 324 326 331 332 337 344 351 355 352 345 342 342 340 341 343 344 350 351 348 345 344 344 349 355 361 367 370 373 375 379 382 377 370 367 367 366 366 365 366 367 367 367 368 368 367 367 367 367 369 369 368 369 368 367 366 364 362 363 361 361 361 361 360 359 359 359 359 360 362 363 363 362 361 361
324 327 333 333 327 328 332 333 335 334 331 333 332 331 333 334 331 335 344 346 350 350 346 344 344 343 342 341 343 347 348 349 352 353 354 356 354 358 369 376 382 384 384 384 378 369 366 367 366 366 366 366 366 367 366 367 367 367 367 367 367 369 369 368 369 369 369 367 366 365 364 363 362 362 362 362 360 359 360 359 360 360 362 362 363 363 362
326 336 341 336 329 332 333 333 335 335 334 337 334 335 341 345 341 338 339 343 346 346 341 340 342 340 336 338 343 345 346 352 359 361 365 364 361 365 375 383 387 384 377 375 373 365 362 362 362 362 363 364 365 366 365 366 366 366 366 365 367 369 368 368 369 369 369 368 368 367 365 365 364 363 363 363 362 360 360 360 361 361 360 361 361 363 363
326 330 333 332 328 330 332 334 336 333 335 338 337 336 341 346 345 344 340 338 340 339 337 339 340 337 338 345 353 356 357 359 361 362 363 363 362 362 365 369 373 373 367 365 364 360 357 358 359 361 362 362 363 364 365 366 366 366 366 365 365 367 369 369 369 370 370 370 369 368 367 367 366 365 364 364 363 363 361 360 360 361 360 361 360 361 363
322 324 328 329 326 327 330 333 335 332 331 333 336 341 344 344 342 345 345 342 344 342 340 338 337 341 350 357 360 360 362 361 360 360 360 358 360 360 359 361 364 367 367 364 361 359 357 358 359 359 362 363 362 362 363 365 366 367 367 366 365 367 369 370 369 369 370 370 369 369 368 368 367 366 366 365 364 364 363 362 361 361 361 361 361 361 362
320 324 331 331 326 328 332 333 333 333 334 331 336 345 345 342 341 346 347 346 347 348 347 345 342 346 356 362 359 355 359 360 359 360 360 358 357 358 360 361 362 366 370 367 364 365 363 363 366 365 363 365 365 365 364 364 365 366 367 366 365 366 369 370 370 371 371 372 371 370 370 369 369 369 367 366 366 366 366 364 363 362 362 363 362 362 362
322 326 330 329 328 330 330 330 332 334 334 332 343 349 346 341 340 345 346 345 346 345 347 349 348 351 357 360 356 351 353 357 357 359 360 359 358 357 360 363 364 366 368 365 366 368 365 366 369 369 369 369 368 368 367 366 364 364 365 366 365 365 366 368 371 371 371 372 373 372 372 371 371 370 370 369 368 367 367 366 365 364 364 363 364 365 364
319 325 326 325 328 330 328 329 332 333 334 341 350 349 347 339 340 345 344 343 344 343 345 347 349 350 351 351 351 350 350 352 355 357 359 358 358 358 360 361 363 364 364 364 365 366 365 367 369 368 368 370 369 368 367 368 367 364 362 365 365 365 365 367 370 371 371 372 373 373 373 373 372 372 371 370 370 369 369 369 368 367 366 365 365 366 365
316 324 329 327 329 329 327 328 329 331 341 349 347 347 343 337 340 344 341 341 343 343 345 346 346 346 344 345 347 348 349 353 356 357 357 357 356 358 358 358 357 362 364 365 365 363 364 368 369 367 366 366 367 367 367 368 369 366 363 363 365 365 366 367 369 371 371 372 374 374 374 374 374 374 372 372 371 370 370 370 370 368 368 366 366 366 366
317 322 327 331 334 331 325 328 331 333 341 344 345 345 341 335 337 340 339 339 341 343 346 346 344 344 344 344 346 347 348 352 355 356 358 357 355 357 357 356 355 360 363 363 362 363 362 364 367 368 367 367 365 366 366 366 368 368 366 364 364 365 366 366 369 371 371 372 374 375 375 375 374 374 374 373 372 372 371 371 370 370 369 368 367 367 367
319 323 327 335 338 331 323 327 330 331 336 339 340 341 337 332 334 337 337 338 338 340 344 344 342 343 344 344 345 346 348 349 352 353 356 356 356 356 357 356 355 357 360 361 362 362 361 362 363 365 368 370 368 369 370 369 367 368 368 365 365 366 366 366 369 370 371 372 374 375 376 375 374 375 375 373 373 372 372 372 371 370 369 369 369 367 367
322 325 329 332 332 325 321 326 328 327 330 333 332 332 330 329 333 334 334 336 337 338 341 343 343 344 344 345 344 345 346 347 349 351 354 354 355 355 356 356 355 355 357 360 361 360 359 360 361 362 365 369 368 368 369 369 370 369 368 368 368 367 366 368 369 371 372 372 374 375 375 375 375 375 374 374 373 372 372 372 372 371 372 371 370 369 368
321 323 325 326 325 323 322 323 324 324 326 328 328 328 329 330 330 330 329 332 335 336 337 340 343 343 344 344 344 344 346 347 349 351 354 354 354 354 356 356 355 356 357 358 360 359 357 357 358 359 361 363 364 364 365 368 370 369 368 370 371 368 368 368 368 371 373 372 373 374 374 374 375 375 375 374 373 373 373 372 371 372 372 372 371 371 369
321 323 324 322 323 324 323 323 323 324 325 326 326 328 330 329 327 327 328 329 331 333 336 338 340 342 343 344 344 345 346 346 349 352 354 355 354 353 354 355 355 356 357 358 358 358 356 355 355 356 357 359 360 362 363 364 366 369 370 371 371 371 370 370 370 371 373 374 373 373 372 373 374 374 375 374 373 373 373 372 372 372 372 372 372 371 371
320 321 322 321 322 324 323 323 324 325 326 326 326 326 327 327 326 326 326 327 327 330 333 337 339 341 343 345 346 345 346 348 351 353 354 354 353 352 352 354 354 354 356 357 357 356 354 354 354 354 357 357 358 361 365 366 366 368 370 370 370 371 371 370 370 370 372 373 374 372 372 372 373 374 374 374 372 373 373 373 372 372 371 371 370 370 370
318 319 321 324 325 324 323 322 323 324 325 325 325 325 326 328 328 327 325 325 326 327 330 335 338 340 343 346 347 346 347 349 352 352 353 351 351 352 353 352 352 353 355 356 355 354 353 353 354 354 355 356 357 359 364 368 370 369 370 371 371 372 371 370 370 370 371 372 370 367 365 365 365 367 369 371 370 370 370 371 371 370 370 369 367 366 365
319 319 321 323 322 320 321 322 322 322 323 323 324 325 326 327 329 327 326 326 327 328 329 332 337 340 342 345 348 348 349 351 351 350 350 349 348 352 353 352 352 353 353 353 353 353 353 352 353 354 354 354 356 357 361 365 369 369 370 370 369 370 371 370 370 369 367 364 362 361 361 360 358 356 357 362 365 364 365 366 368 368 367 365 363 363 356
318 318 319 319 318 318 319 320 322 323 323 322 324 325 325 326 327 326 326 328 330 331 330 330 335 341 343 343 345 347 348 347 346 345 346 348 349 352 352 352 352 353 352 352 352 352 352 352 352 352 352 352 353 355 357 360 364 366 367 365 363 364 366 366 366 363 359 355 354 354 355 355 353 350 346 347 351 353 356 358 360 361 359 355 354 354 347
317 317 317 317 318 318 318 318 321 323 323 322 323 323 323 324 324 323 326 329 330 332 331 328 331 338 342 341 342 345 346 345 342 341 344 347 348 351 352 352 352 352 352 353 352 351 352 350 350 351 352 351 352 353 355 356 360 362 363 361 359 359 361 362 362 359 354 349 348 347 346 346 346 343 337 334 335 337 340 343 346 347 345 343 340 339 336
316 316 316 316 317 317 317 317 319 322 323 323 324 323 323 325 325 325 327 329 328 329 330 328 329 335 340 340 340 342 343 342 340 341 344 346 347 349 351 352 352 352 352 352 352 352 351 350 349 350 350 350 352 354 354 355 356 357 358 357 356 355 356 358 359 357 354 349 346 344 343 341 338 335 332 330 330 331 331 331 331 331 331 331 330 328 328
315 315 315 315 315 315 316 317 318 320 322 322 323 323 323 323 324 324 324 324 324 325 328 328 330 334 338 338 338 339 340 340 341 341 342 343 345 347 350 352 352 353 353 352 352 351 349 349 348 348 349 350 352 353 353 353 354 354 354 354 353 353 352 352 352 353 353 351 347 343 340 338 336 334 332 330 330 331 331 332 332 332 332 332 331 330 329
313 314 314 314 314 315 316 317 318 319 320 321 321 322 320 319 320 321 321 321 321 322 324 324 327 334 338 337 337 339 340 340 341 341 341 343 345 347 349 352 352 352 352 352 351 350 348 347 347 346 345 347 350 352 352 352 352 352 352 351 352 352 351 350 348 348 348 349 347 343 340 338 337 335 333 333 332 333 335 336 336 338 339 338 337 336 334
311 312 313 314 314 314 316 317 318 320 320 321 321 320 319 318 319 321 321 321 322 324 323 323 327 335 338 337 337 339 340 340 340 341 342 344 346 347 349 351 350 350 351 350 349 349 347 347 348 347 346 347 348 349 350 351 350 350 350 350 350 351 350 349 347 347 345 346 345 343 342 341 340 337 336 339 339 339 340 341 341 342 342 340 339 339 338
311 311 312 313 313 314 315 316 317 318 319 320 319 319 319 319 320 321 322 322 324 326 327 327 330 335 337 336 337 340 341 341 341 340 341 344 346 347 349 349 348 349 349 349 349 349 348 347 347 347 346 347 348 348 350 350 349 349 348 347 347 348 349 348 346 345 345 344 344 343 341 340 340 340 341 341 341 341 340 342 344 344 343 341 340 339 340
311 311 312 313 313 314 315 316 316 316 317 318 318 318 319 319 320 321 322 322 324 326 327 330 335 337 336 337 338 339 340 340 339 338 340 343 345 346 347 347 348 347 346 346 346 345 345 345 344 343 344 346 346 347 349 349 348 347 346 344 343 344 346 345 343 343 343 344 344 343 342 341 341 341 342 342 341 340 339 341 343 343 342 342 341 341 341
313 313 314 314 315 315 316 316 317 316 317 318 318 318 318 320 321 321 322 323 325 326 327 332 337 338 336 336 338 337 337 337 335 335 336 339 342 345 346 345 345 344 342 342 342 342 342 341 340 340 342 344 346 346 346 346 346 345 343 342 342 343 343 343 343 344 344 344 344 344 343 343 343 342 342 342 342 342 341 341 341 341 341 341 341 341 340
316 315 315 315 315 316 316 317 317 317 318 318 319 318 319 320 321 321 321 322 324 326 330 334 336 334 333 334 334 333 332 331 329 329 329 330 333 339 342 341 339 337 337 336 337 339 339 338 336 337 338 342 345 345 344 344 343 343 343 342 343 343 344 344 344 344 343 343 343 342 342 342 342 341 342 341 341 340 341 340 341 341 341 341 339 339 338
320 319 319 318 317 317 318 318 317 317 318 318 319 320 320 320 321 321 321 321 324 329 333 335 333 330 329 329 329 328 327 326 326 325 325 324 324 328 333 335 333 332 331 332 333 334 334 333 332 333 335 338 342 344 345 344 344 343 342 341 340 341 342 341 341 341 340 340 339 338 337 337 337 337 337 337 337 336 336 337 338 338 339 340 339 338 337
318 320 321 321 320 319 319 318 318 318 319 320 320 320 320 321 321 320 320 322 326 331 333 332 329 327 326 325 324 324 324 323 323 322 321 321 320 320 323 327 329 328 328 328 329 330 330 330 329 330 332 334 338 341 342 343 343 341 340 338 337 337 338 337 337 336 336 335 335 333 332 332 332 332 332 332 332 332 332 333 333 334 334 335 335 335 335
313 315 317 320 321 320 320 319 319 319 319 320 320 320 320 320 320 319 322 326 330 331 329 328 326 325 323 321 321 321 321 320 320 319 318 318 318 317 317 320 323 324 324 325 326 328 328 328 327 328 329 332 334 336 338 339 338 337 336 335 335 334 334 333 332 332 331 331 330 329 328 329 329 328 328 328 328 328 328 328 329 329 329 329 330 331 331
311 312 313 315 316 317 318 319 320 320 320 321 321 322 321 320 320 322 327 330 329 327 326 325 323 321 320 319 319 319 318 318 317 317 316 315 315 315 315 316 318 320 321 321 322 325 327 327 326 326 327 328 330 333 334 334 334 334 333 332 331 331 331 329 329 328 327 327 326 326 325 325 324 324 324 324 323 323 323 323 323 323 323 323 323 325 327
310 310 311 312 313 314 315 316 317 318 319 320 321 323 323 324 325 327 328 327 326 325 323 321 319 318 317 317 317 316 316 316 315 315 315 314 313 314 314 314 315 318 319 319 319 322 324 325 324 324 324 325 326 328 329 330 330 330 329 329 329 328 328 327 326 325 324 323 323 322 322 321 321 321 320 320 319 319 319 319 319 318 318 317 318 319 321
309 309 309 310 311 312 313 314 315 315 316 316 316 317 320 321 322 322 321 320 321 321 319 318 317 317 316 315 315 315 315 314 314 313 313 313 313 313 313 313 313 315 317 317 317 319 321 321 321 322 322 323 323 324 324 325 326 325 325 326 325 325 325 324 323 322 321 320 320 319 319 318 318 318 317 317 316 316 315 315 315 314 313 313 314 314 315
309 309 308 308 309 310 311 311 312 313 314 314 313 314 315 316 316 317 316 316 316 315 315 315 315 314 314 314 314 314 314 313 313 313 313 312 312 312 312 312 312 313 314 315 315 316 317 318 319 320 320 321 321 321 321 321 321 321 321 321 321 320 320 320 320 320 319 318 318 317 317 316 316 315 314 313 313 312 312 311 311 311 310 310 310 311 311
309 308 308 308 308 308 308 309 310 311 311 312 312 312 313 313 313 314 314 314 313 312 311 311 311 311 311 311 312 312 312 312 312 312 312 312 312 312 312 312 311 311 312 313 314 314 314 314 315 316 318 318 319 319 318 318 318 317 317 317 317 317 316 316 316 316 316 315 315 315 314 314 314 313 312 311 310 309 309 308 308 308 308 308 308 308 308
309 308 308 308 307 307 307 307 308 309 309 310 310 310 310 311 312 312 313 313 312 311 310 310 309 309 309 309 309 310 310 310 311 311 311 311 311 311 311 311 311 311 311 311 311 312 313 313 313 313 314 316 317 317 316 315 315 314 314 314 314 314 313 313 313 312 312 312 312 311 312 312 312 311 311 310 309 308 307 307 306 306 306 306 305 306 306
310 309 308 307 307 307 306 306 306 307 308 308 309 308 308 309 310 311 311 311 311 311 311 311 311 310 309 309 309 309 309 309 309 310 310 310 311 311 311 311 310 310 310 310 310 311 311 311 312 312 311 312 313 314 314 313 313 312 312 311 311 311 311 310 310 309 309 309 309 309 309 309 309 309 309 309 308 307 307 306 305 305 304 304 304 304 304
311 311 310 309 308 307 306 305 305 306 306 306 307 307 308 308 308 309 309 310 310 311 311 311 311 311 311 311 311 310 310 310 309 309 309 309 309 310 310 310 310 309 308 308 309 309 310 310 310 311 311 310 310 310 311 312 312 311 310 310 309 308 308 307 306 306 306 306 306 306 307 307 307 307 306 306 306 305 305 304 304 304 303 303 303 303 302
310 310 311 310 310 309 308 307 306 306 305 305 306 306 307 307 307 308 308 309 309 309 310 310 310 310 310 310 310 311 311 310 310 309 309 309 309 308 308 308 309 309 309 308 307 308 308 308 309 309 309 308 308 308 308 309 309 310 310 310 309 308 307 306 305 305 304 304 303 303 303 303 304 304 305 304 304 304 303 303 303 303 302 302 302 301 301
311 310 310 310 310 310 310 309 309 308 307 307 307 306 306 307 307 308 308 308 308 308 309 308 309 309 309 309 309 309 309 309 310 310 309 309 309 309 308 307 308 309 308 308 308 307 307 307 307 307 307 307 307 307 306 306 307 307 308 308 308 308 308 307 306 305 305 304 304 303 302 302 301 301 302 302 302 302 302 301 301 301 301 301 301 300 300
311 311 311 310 310 309 309 310 310 310 309 310 310 310 309 308 308 308 308 308 308 308 308 307 307 308 308 308 308 307 307 307 308 309 309 309 309 308 308 308 308 308 308 307 308 308 307 307 306 306 306 306 305 305 305 305 305 306 306 306 306 306 307 307 307 307 306 306 305 305 304 302 302 301 300 300 300 300 299 299 299 298 298 298 298 298 299
312 312 312 312 312 311 311 311 310 310 310 311 311 311 310 309 309 308 308 307 307 307 307 307 306 306 307 307 307 308 307 307 307 307 308 308 308 308 307 307 307 307 307 307 307 306 306 306 306 306 306 306 305 304 304 304 305 305 305 305 305 305 305 305 305 305 305 305 305 305 305 304 303 302 302 301 300 300 300 299 299 298 297 296 296 295 296
313 312 312 312 312 312 312 312 312 312 311 311 311 310 309 309 308 307 307 306 306 306 306 306 306 306 306 306 306 307 307 307 306 306 306 307 307 308 307 307 306 306 306 306 305 305 305 305 305 305 305 305 305 304 304 304 303 304 304 304 305 305 305 304 304 304 304 304 304 304 304 304 304 303 303 302 301 300 300 300 299 299 298 297 297 296 295
312 311 311 311 311 311 311 311 312 312 311 311 310 310 309 308 308 308 307 306 305 305 305 305 305 305 305 305 306 306 306 306 306 306 306 306 307 307 306 306 306 305 305 304 305 305 304 304 304 304 304 304 304 304 304 303 302 303 303 303 304 304 304 304 304 304 303 304 304 303 303 303 303 303 303 303 302 301 301 300 300 299 299 298 298 297 296
311 311 311 311 310 310 310 310 311 311 310 309 309 308 307 307 307 307 306 306 305 304 304 303 304 304 304 304 305 305 305 305 305 305 305 305 306 305 305 305 305 305 304 304 304 304 304 304 304 303 303 303 303 303 303 303 302 302 302 302 302 302 303 303 303 303 303 302 302 303 302 302 302 302 302 302 302 301 301 300 300 300 299 299 298 298 297
311 312 311 311 310 309 308 309 309 308 308 307 307 306 306 305 305 305 304 304 305 304 304 303 303 303 303 303 304 304 305 304 304 304 304 304 304 304 304 304 304 303 303 302 302 303 303 303 303 302 302 302 302 302 302 302 302 301 301 301 301 301 301 302 302 302 302 302 301 301 301 301 301 301 301 301 301 300 300 300 299 299 299 298 298 297 297
310 310 309 309 309 308 308 308 307 307 307 306 306 306 305 305 304 303 303 303 304 304 304 303 303 302 302 302 303 303 303 303 303 303 303 303 302 302 302 303 302 302 302 301 301 301 301 301 302 302 301 301 301 301 301 301 301 301 301 301 300 301 300 300 300 301 301 301 301 300 300 300 300 300 300 300 300 300 299 299 299 299 298 298 297 297 296
Wind_Speed
13 13 14 13 9 6 12 16 16 14 19 22 17 9 9 9 7 5 7 11 10 6 6 5 6 7 7 8 10 9 8 8 9 13 18 17 13 9 9 13 16 17 17 16 16 16 17 20 23 24 27 30 31 31 32 34 34 34 35 37 37 37 38 39 41 42 42 42 42 42 41 41 41 40 39 39 39 38 38 39 40 40 39 38 38 39 39
14 11 10 13 11 6 1 9 17 16 16 22 20 11 9 11 9 7 8 11 10 7 6 6 6 5 7 9 9 8 9 10 11 11 14 13 11 9 9 12 13 13 15 16 15 16 16 18 21 23 25 29 31 31 32 34 35 35 36 37 38 38 38 39 40 41 42 41 41 41 40 41 41 41 40 40 40 40 40 40 40 40 39 38 38 38 39
9 8 7 12 13 7 4 3 9 12 11 17 20 15 10 9 9 9 9 10 7 6 7 5 3 6 9 10 10 10 9 10 12 12 11 11 11 11 10 11 10 10 11 11 11 14 15 17 21 23 24 28 30 31 31 34 35 35 35 36 38 38 38 39 40 40 41 41 41 41 41 41 42 42 41 40 40 40 40 39 39 39 39 39 39 38 38
6 7 6 11 13 8 7 6 4 3 4 9 17 16 10 7 10 10 8 7 6 6 6 6 8 9 9 10 10 9 8 8 11 11 9 10 11 11 11 10 10 10 11 11 12 12 13 16 21 22 23 26 29 30 31 33 35 36 35 34 37 38 38 37 38 39 40 40 40 41 41 41 41 42 42 40 39 39 39 39 38 38 39 40 40 38 38
7 10 11 11 9 7 5 5 2 1 4 5 12 16 12 6 9 9 6 5 6 6 9 10 11 11 11 10 8 8 8 9 10 10 8 7 9 10 10 10 10 10 10 10 11 12 13 17 21 23 25 26 28 31 32 32 33 35 34 33 34 36 37 37 38 38 39 39 40 40 41 41 40 40 40 40 39 39 39 39 38 38 39 40 41 40 38
7 13 14 8 4 3 3 1 2 1 3 6 5 13 14 10 6 7 6 6 4 8 10 10 11 12 11 9 8 8 8 8 9 9 9 8 7 8 8 8 8 8 8 7 9 12 16 19 21 22 24 25 28 30 31 32 32 33 34 32 31 34 36 36 38 38 38 39 39 39 39 40 38 38 38 40 40 39 38 37 37 38 38 39 40 41 40
6 9 9 3 1 4 4 3 4 2 1 2 5 8 3 6 6 6 10 8 5 10 10 8 10 11 11 11 10 9 9 9 10 10 9 8 7 6 7 7 6 6 7 6 6 9 12 15 16 18 19 21 23 27 29 30 31 32 33 32 29 31 34 36 36 38 38 38 38 38 38 38 37 37 37 38 39 39 37 37 38 39 39 39 39 40 41
4 4 3 0 3 6 7 4 4 3 1 2 7 13 15 13 10 2 10 11 8 10 11 10 9 11 13 13 11 12 12 13 13 13 13 13 11 8 8 9 7 7 9 9 8 8 7 8 12 15 19 20 20 22 25 28 30 30 31 31 29 29 32 35 35 36 38 37 37 37 36 36 36 37 37 37 37 38 37 36 37 38 38 38 39 39 40
4 4 3 3 3 6 6 5 6 4 1 3 6 8 12 19 21 12 3 13 13 10 12 12 10 11 14 12 11 14 15 14 14 15 15 15 15 12 11 11 11 12 13 14 12 10 8 5 4 7 13 18 21 21 21 23 25 27 28 28 28 28 30 34 35 35 37 37 36 36 35 35 36 36 36 36 35 36 36 36 36 36 37 38 38 38 37
4 5 4 3 2 2 6 11 14 11 3 5 9 10 10 16 22 20 10 10 11 9 11 11 10 11 13 10 8 11 13 13 14 14 14 13 12 11 10 10 12 14 15 14 12 10 7 5 4 2 2 9 15 19 21 22 22 23 25 26 27 27 28 32 34 35 35 36 35 35 35 35 35 34 34 34 34 34 34 35 35 35 36 35 36 36 36
4 4 2 3 1 2 10 16 18 17 10 5 9 11 10 13 18 20 17 16 16 12 10 10 9 10 10 7 5 7 10 12 12 12 12 11 10 11 12 12 11 13 14 14 12 11 9 7 6 6 5 4 6 10 16 22 22 21 24 26 27 27 27 29 32 34 34 35 35 34 34 34 33 32 33 32 32 32 33 33 33 33 32 31 32 33 33
4 4 2 3 0 3 12 17 17 19 13 4 9 8 5 11 15 15 17 18 18 14 12 12 11 9 8 5 5 7 10 10 10 10 10 10 9 8 11 14 15 15 15 13 11 10 9 8 6 6 6 6 5 6 8 14 21 24 26 28 27 26 26 27 30 32 33 33 34 34 33 32 31 31 31 31 30 31 31 31 31 30 29 29 29 29 30
5 4 3 3 0 4 13 16 17 18 11 4 9 5 2 10 12 11 15 16 15 13 12 12 10 8 7 7 7 9 11 10 10 10 10 10 11 11 14 18 18 16 15 13 11 11 13 12 9 6 5 7 9 7 6 9 18 25 28 27 26 26 25 25 27 30 31 32 33 32 32 31 30 30 30 29 29 29 29 29 29 29 29 28 27 27 27
5 4 2 2 1 7 15 15 15 16 8 4 4 0 4 7 10 12 14 14 13 13 13 11 9 9 10 11 10 11 11 11 11 11 10 11 12 13 15 18 18 15 13 13 13 14 16 16 15 9 5 7 9 10 8 9 13 20 23 23 24 25 24 24 26 28 29 30 31 30 29 29 29 28 28 28 28 28 28 27 27 27 28 27 26 25 25
3 3 2 2 0 7 17 15 12 14 9 3 2 2 2 8 11 11 11 12 12 11 11 12 11 10 11 12 12 11 11 11 11 10 10 9 10 11 13 15 16 14 12 11 12 12 13 15 16 16 10 7 10 9 8 8 9 13 20 22 22 23 24 24 25 27 28 28 28 28 27 28 29 27 27 27 27 27 27 27 26 26 26 26 26 24 22
2 1 2 1 3 5 12 12 7 8 7 4 2 3 6 8 9 9 8 10 12 11 10 9 10 11 12 12 12 12 11 11 10 9 9 9 9 10 13 15 17 16 12 10 9 9 12 15 16 19 16 4 5 1 4 4 2 8 16 21 22 23 23 23 24 25 26 27 27 27 26 27 28 27 26 26 27 27 27 27 25 24 24 25 24 22 21
3 2 1 2 3 4 8 7 5 7 8 7 7 8 7 7 8 8 8 9 11 12 11 9 9 10 11 11 11 11 10 10 10 10 9 10 10 10 12 13 15 16 14 12 9 10 15 17 17 19 18 11 7 7 7 5 4 4 10 16 20 21 22 22 22 23 25 26 26 26 26 26 27 26 26 25 25 25 26 26 24 22 22 22 23 22 21
4 3 3 0 4 7 7 6 6 8 9 9 9 9 7 7 8 8 8 9 10 11 12 11 9 9 10 10 10 9 9 9 10 10 9 9 10 11 10 11 12 14 14 12 8 11 14 15 16 18 17 15 14 12 7 5 6 4 5 11 16 19 20 21 21 21 23 24 25 25 25 26 26 25 26 26 25 24 24 24 23 21 21 21 22 20 19
3 2 2 4 5 6 7 6 6 7 8 8 8 7 6 7 9 9 10 11 11 11 12 12 11 10 10 10 9 8 9 9 10 10 10 9 10 10 9 10 11 12 13 11 6 9 12 12 13 15 14 13 15 13 8 6 4 3 4 8 13 15 17 19 20 20 21 22 24 24 24 24 24 25 26 26 24 23 23 22 21 20 19 19 19 19 19
3 3 6 7 4 3 5 5 4 6 7 7 7 7 7 9 10 10 10 11 11 11 11 11 12 11 10 10 9 8 8 8 9 9 9 9 10 11 9 8 9 10 11 10 8 9 10 10 11 11 11 12 13 13 10 5 1 1 4 7 10 12 14 16 17 18 19 21 22 21 19 19 19 20 22 24 23 21 20 20 20 19 18 17 17 17 17
6 5 5 5 4 3 4 5 6 7 6 6 7 7 7 8 9 10 10 9 10 10 10 10 10 10 10 9 8 8 8 7 7 8 8 9 12 14 11 7 6 8 8 8 8 8 8 8 8 8 9 10 11 12 11 6 3 4 5 6 8 9 12 14 14 14 16 20 22 20 18 17 14 12 14 18 19 16 15 17 18 19 18 15 14 15 15
5 5 4 5 4 4 3 6 7 7 6 6 6 6 6 6 6 7 8 8 8 8 9 8 8 8 9 8 7 7 6 7 7 8 9 9 12 15 13 8 6 6 5 4 5 5 5 5 6 7 8 9 9 9 10 8 8 10 12 12 12 11 12 12 11 12 14 19 23 23 21 20 19 17 15 15 17 15 13 13 15 17 17 16 17 19 20
6 8 8 8 6 4 4 6 5 4 6 6 5 5 5 5 5 4 5 6 7 7 8 8 7 7 8 9 9 7 6 7 8 10 10 10 11 14 14 9 5 5 5 2 2 3 3 4 4 5 6 6 6 7 8 9 11 14 17 18 17 16 17 17 16 17 20 22 23 24 24 25 26 26 24 22 20 19 17 15 15 16 17 18 18 18 19
8 9 10 9 8 7 7 8 7 3 3 4 4 4 4 3 3 2 3 4 5 6 7 8 9 8 7 7 8 8 7 7 9 11 12 13 14 16 14 9 4 4 4 2 2 2 2 3 3 4 5 5 4 4 6 8 12 15 18 19 18 16 18 20 21 22 23 23 24 25 25 26 28 29 29 27 25 24 23 22 21 20 21 21 20 19 19
8 9 10 10 11 10 8 8 7 6 4 4 4 3 3 3 3 2 4 4 5 5 6 7 8 7 6 6 6 6 7 8 11 14 14 14 16 16 13 8 4 2 0 2 2 1 1 1 3 6 8 8 6 5 6 8 12 15 17 18 19 18 19 21 22 22 22 23 24 24 24 25 26 27 28 26 24 24 26 26 26 25 23 22 21 21 19
10 9 11 13 13 12 9 7 7 6 6 6 5 3 2 4 5 4 4 3 4 4 4 7 8 4 4 5 6 6 6 8 12 15 14 12 14 14 10 6 4 3 4 4 4 3 2 4 5 6 6 6 7 7 7 9 13 16 18 19 20 20 20 21 21 21 21 22 22 22 22 24 25 25 26 27 27 25 23 23 23 23 22 20 17 16 15
13 10 10 12 14 11 8 7 8 6 6 8 8 5 4 3 5 5 3 4 5 4 3 8 10 4 1 4 7 7 8 9 10 12 12 12 14 14 9 6 5 5 6 6 6 6 7 8 7 5 4 5 7 9 11 13 15 17 19 19 19 19 20 21 21 21 22 23 23 23 22 23 24 24 25 26 26 24 22 20 20 20 19 18 15 12 11
15 12 10 12 14 11 7 7 8 7 6 6 8 8 7 5 4 4 4 5 5 3 3 8 9 3 1 3 5 5 7 8 7 8 10 13 17 13 7 9 8 7 7 6 6 7 8 7 6 4 3 5 8 11 13 14 15 16 16 18 19 19 19 21 21 21 22 23 24 24 23 22 23 24 24 22 21 20 20 19 19 18 17 15 13 11 9
15 13 12 14 15 13 10 9 10 10 8 6 7 9 10 8 6 5 5 5 5 4 4 7 7 1 2 2 4 4 5 6 6 7 11 15 16 10 4 7 6 4 6 6 7 8 8 8 9 7 5 5 7 9 10 10 12 14 16 17 18 18 18 19 20 21 23 23 23 23 22 22 22 21 20 20 20 19 18 17 19 18 16 14 14 12 9
13 13 14 14 13 12 12 12 11 11 9 6 6 9 9 9 7 7 7 7 7 6 6 6 4 3 4 3 3 2 3 4 6 9 13 15 12 4 3 5 5 9 11 12 13 15 14 15 17 17 12 8 10 12 14 15 17 19 20 18 17 18 19 20 20 21 21 21 21 21 21 20 19 19 19 19 18 16 15 15 16 16 14 14 14 12 10
10 11 14 14 13 12 13 12 10 10 9 7 7 8 8 8 7 7 7 7 7 7 9 7 4 4 5 5 6 6 6 6 8 11 14 16 12 3 7 8 7 9 11 12 12 13 15 18 20 21 19 15 13 14 17 21 23 23 21 19 17 16 17 19 19 20 20 19 19 20 21 20 18 18 18 16 15 13 13 12 11 11 11 12 12 10 8
8 10 11 12 12 12 12 10 9 9 9 7 7 8 8 6 6 6 7 7 6 7 8 7 4 5 7 8 10 11 11 12 14 16 18 21 19 10 8 14 14 15 17 17 14 13 16 20 21 19 19 19 16 13 15 20 22 22 21 21 20 19 19 21 23 24 26 26 25 25 25 24 23 22 21 19 19 20 20 18 16 15 13 13 13 11 8
3 7 9 10 10 11 11 10 9 9 9 8 7 7 6 5 5 5 6 7 6 6 5 3 4 8 11 13 13 13 13 15 16 16 17 22 27 23 12 14 19 21 22 21 18 18 21 23 21 20 21 21 19 15 14 17 20 21 21 23 25 26 26 26 27 28 29 28 27 28 28 27 27 26 25 24 25 25 25 24 23 22 18 14 12 10 8
11 6 2 6 8 8 9 9 8 7 7 6 5 5 5 5 4 5 7 8 7 3 1 3 6 10 15 17 17 17 15 13 11 11 14 22 29 32 28 17 15 21 26 26 24 24 26 25 21 21 24 24 22 18 15 17 22 24 25 26 27 27 27 27 28 29 28 27 28 29 29 29 28 27 26 26 26 25 25 24 23 22 21 19 16 15 16
17 16 12 7 4 3 1 2 4 5 6 5 5 5 5 5 5 8 9 7 2 6 10 9 9 13 17 18 18 17 15 12 11 13 18 24 28 32 34 29 17 14 27 31 27 26 28 27 25 27 29 28 26 23 19 20 25 27 27 27 28 28 29 30 30 30 28 27 28 29 28 28 27 26 26 26 26 25 24 24 23 21 20 20 19 19 20
19 18 17 15 14 14 12 8 5 2 1 2 2 3 5 6 7 8 6 4 10 14 16 15 15 16 17 16 16 16 15 14 15 18 21 23 26 32 34 30 24 14 22 29 26 25 27 28 29 33 34 33 32 30 27 26 28 29 29 30 30 30 30 31 30 29 29 28 28 28 27 27 28 27 26 26 25 24 23 22 22 21 20 19 19 19 19
23 19 15 14 16 18 16 13 12 11 9 7 7 5 3 3 2 3 6 9 12 16 19 19 18 17 17 18 20 21 19 18 19 19 20 22 27 33 35 29 25 19 18 21 22 24 27 29 31 35 36 34 34 33 32 31 31 31 31 31 31 30 29 29 29 29 29 28 28 28 27 27 27 26 25 24 23 22 21 20 19 19 19 19 20 21 21
24 24 21 19 20 20 19 20 22 22 17 15 15 15 13 12 12 14 16 15 10 13 22 25 22 20 20 21 22 23 21 20 21 21 21 24 30 33 31 26 24 23 20 20 24 26 28 30 32 34 34 33 33 34 33 33 33 32 31 31 30 29 29 28 28 28 28 28 28 28 27 26 25 23 22 21 20 19 18 17 17 18 19 20 21 22 22
20 22 24 25 24 23 23 25 28 26 22 19 19 20 22 25 23 21 23 23 18 15 23 28 25 22 21 20 20 20 20 20 22 22 22 25 28 30 30 30 30 29 27 27 30 31 32 32 33 34 32 31 32 33 33 34 35 34 32 32 31 30 29 28 27 27 26 26 26 26 25 24 24 22 20 19 18 18 18 18 18 19 19 20 20 20 21
14 16 20 22 22 22 22 22 23 26 28 27 26 25 26 27 25 22 23 23 20 19 24 28 25 21 19 19 19 20 21 21 22 22 22 24 26 26 26 29 33 35 34 33 33 33 34 35 35 34 32 32 32 32 32 33 34 34 32 31 30 29 28 28 27 26 25 24 24 24 23 22 22 22 21 20 19 19 19 20 20 20 20 20 20 20 20
13 16 20 20 19 21 23 21 21 25 30 32 32 31 32 30 26 22 21 21 21 23 27 28 25 23 22 23 23 24 24 24 25 25 25 25 24 20 17 20 28 33 35 36 36 35 35 35 36 35 33 33 31 30 31 33 34 33 32 30 29 28 27 27 27 26 25 24 24 23 23 22 21 21 21 21 20 20 20 20 20 20 20 20 21 20 20
13 16 18 17 17 21 24 24 23 25 28 31 32 33 34 33 29 24 23 23 23 24 27 27 25 24 24 25 25 26 25 25 27 29 30 29 26 20 16 19 28 33 34 35 37 37 36 35 35 34 33 32 30 29 29 31 32 32 31 30 29 28 28 27 26 26 25 25 24 23 23 22 22 21 20 20 20 20 20 20 20 19 19 20 21 21 22
13 13 13 13 15 19 22 23 23 24 26 29 30 31 32 32 30 28 27 28 28 26 25 23 22 22 23 23 23 22 22 23 25 27 29 31 32 28 24 23 27 32 33 35 36 35 34 34 34 33 33 32 31 30 30 29 29 29 29 29 29 29 29 28 28 27 27 27 26 24 23 22 22 21 21 21 20 20 20 20 19 18 18 19 20 21 22
12 13 12 12 14 14 16 19 20 20 20 23 26 28 28 27 26 26 28 29 29 28 26 23 21 21 23 24 22 20 20 20 21 22 21 22 24 27 28 26 26 27 29 32 34 33 32 32 32 31 31 30 30 30 31 29 27 26 26 25 26 27 27 27 27 27 27 27 27 27 26 25 24 22 21 20 20 20 20 20 19 18 18 19 20 21 24
12 12 11 12 12 12 12 14 14 14 16 19 23 25 25 24 23 24 25 24 25 26 26 26 24 23 23 24 24 23 23 22 22 21 18 14 13 17 22 25 25 25 26 28 30 31 30 30 29 29 30 30 29 30 30 29 27 27 26 25 24 24 24 24 24 25 25 25 25 26 26 27 27 26 25 23 22 22 21 21 21 20 20 20 21 22 24
11 10 10 10 11 11 12 13 13 13 14 14 15 17 19 20 20 21 21 22 22 23 24 26 26 26 25 24 23 22 24 24 24 23 21 19 17 18 21 22 24 25 26 27 28 27 27 27 28 27 27 27 28 29 28 27 27 27 26 26 25 25 24 23 22 22 22 22 22 22 23 24 25 26 25 25 24 24 25 25 26 25 25 25 25 24 24
9 8 7 7 8 8 9 11 12 13 13 10 9 10 14 17 17 18 20 21 22 22 22 23 24 25 25 24 22 19 19 19 20 21 22 21 19 19 21 22 23 25 26 27 27 27 26 26 26 25 24 24 25 26 25 25 25 25 24 24 25 25 25 25 25 24 24 23 22 20 20 20 21 21 22 23 24 24 25 26 27 27 27 29 30 29 28
11 10 9 9 9 9 9 9 9 9 9 9 9 11 15 17 18 19 20 22 22 22 21 21 21 22 22 22 21 20 18 16 15 17 20 21 20 19 21 21 22 23 24 26 26 26 25 24 24 23 22 22 22 22 22 23 23 23 23 23 23 23 22 23 23 23 23 23 22 21 20 20 18 16 17 19 22 23 23 24 25 26 27 28 29 29 30
13 12 12 12 11 10 10 9 8 7 8 9 11 13 14 15 15 16 18 20 21 21 21 20 19 19 19 19 19 20 21 19 17 16 19 21 21 22 22 21 20 20 22 23 23 23 23 22 22 22 22 23 22 22 21 22 23 23 23 23 23 23 23 22 22 21 21 20 20 19 19 19 18 17 15 16 18 20 21 21 22 23 24 24 25 26 27
11 12 12 12 12 11 11 10 8 8 9 11 13 15 16 16 14 14 14 15 16 16 17 18 18 18 18 18 18 19 21 22 21 20 19 19 19 20 19 19 19 19 20 20 20 20 20 20 20 21 22 23 23 22 22 21 22 22 23 23 23 23 23 22 22 22 22 22 22 21 20 20 20 20 19 17 18 19 20 20 20 20 21 22 22 23 23
9 10 11 11 10 11 12 12 12 12 13 13 14 15 16 15 15 15 16 15 14 13 13 14 16 17 19 19 18 18 19 20 21 21 22 22 21 20 19 19 19 20 20 20 19 19 20 20 19 19 20 20 21 21 21 21 21 22 22 23 24 24 24 23 22 22 22 22 22 22 22 21 20 20 20 20 20 20 20 19 18 18 18 19 20 20 20
11 12 13 12 11 12 13 14 14 15 15 15 14 14 15 14 14 14 15 15 14 12 11 11 12 16 19 20 19 18 18 17 17 18 18 19 19 20 20 19 19 19 19 19 19 19 19 20 20 20 20 20 20 20 20 21 22 22 21 22 22 22 23 23 23 23 22 22 21 21 21 20 20 20 19 19 18 19 19 18 18 17 16 16 17 17 17
Wind_Direction
288 279 285 291 275 210 179 190 210 206 193 206 216 192 172 159 148 207 203 157 160 201 210 197 198 183 157 133 121 114 108 95 109 150 167 173 174 158 152 163 165 168 173 175 178 179 180 182 183 181 181 184 186 188 190 192 194 195 195 197 199 201 203 204 206 207 208 208 208 207 207 207 208 209 209 209 209 209 210 211 212 213 213 214 215 215 216
297 294 299 301 293 285 219 193 209 217 201 198 209 214 184 162 166 194 176 157 168 180 174 187 198 168 133 127 121 104 103 102 97 121 148 150 140 129 142 161 163 167 174 176 178 177 176 179 180 179 180 182 185 188 190 192 195 197 196 196 198 200 202 204 205 206 207 207 207 207 206 207 207 208 209 209 209 209 211 212 212 213 214 214 216 216 216
304 306 310 302 295 286 296 245 204 219 216 194 199 217 212 162 169 193 160 145 173 177 162 169 135 105 106 110 108 98 104 111 103 107 122 124 118 116 126 140 145 152 159 161 168 173 174 178 179 178 179 181 185 188 190 193 196 197 197 196 197 199 201 203 203 204 206 206 207 207 206 206 207 208 208 208 209 210 210 211 212 212 212 214 216 217 216
317 328 319 290 298 310 289 267 222 217 245 201 191 205 220 180 171 182 147 137 197 191 140 107 86 90 89 87 92 88 82 85 89 100 118 129 131 125 123 128 131 141 148 149 157 166 170 175 177 176 176 180 186 189 191 194 196 198 200 199 198 200 201 201 202 202 204 205 206 207 207 207 207 208 208 209 210 210 210 211 211 210 211 213 215 216 216
310 328 320 284 297 328 288 255 221 86 332 270 198 193 211 200 162 167 165 183 204 156 117 103 94 90 81 78 81 81 75 67 67 73 82 104 125 128 129 133 135 143 150 150 153 159 163 171 179 180 177 179 186 191 193 195 196 199 202 202 200 201 201 200 200 201 202 204 206 207 208 208 208 208 208 209 210 210 211 211 210 210 211 213 215 216 216
301 315 317 304 311 312 262 274 31 85 325 309 211 185 202 212 175 144 162 193 167 102 103 116 114 103 94 91 85 82 83 72 60 59 61 73 91 104 116 127 137 145 147 143 146 155 165 172 178 183 183 184 189 192 194 196 196 198 203 204 202 201 201 200 200 200 201 202 204 207 208 208 209 209 209 209 210 211 211 211 211 211 212 213 215 216 216
291 311 328 339 308 276 270 316 336 304 298 11 63 84 109 242 230 158 152 169 135 94 95 105 108 104 97 87 70 59 63 65 60 49 45 64 90 100 96 87 89 108 117 116 120 135 159 173 177 181 186 188 190 192 194 196 197 199 202 205 204 201 200 201 200 199 199 201 203 205 206 207 208 209 210 211 211 211 211 211 212 213 214 215 216 217 218
296 326 353 223 272 295 296 316 348 345 356 77 74 60 35 359 329 250 163 150 121 102 98 91 92 94 86 73 54 43 47 57 63 57 46 53 67 71 68 66 65 81 92 88 82 90 120 164 183 191 196 195 193 194 196 197 199 200 201 204 205 201 200 201 201 199 199 200 202 203 204 205 207 209 211 212 212 211 211 213 214 215 216 217 218 219 220
332 331 312 288 309 313 307 339 358 331 294 85 87 74 30 6 355 344 142 129 115 109 101 91 89 86 76 64 46 42 48 53 60 65 61 56 58 56 52 52 47 51 67 74 75 77 79 90 139 189 204 204 200 198 198 199 200 201 202 205 206 202 200 200 201 200 200 199 200 201 202 204 206 208 210 212 212 212 212 213 215 216 218 219 220 221 221
331 324 311 301 299 339 347 348 339 321 324 84 85 76 37 3 356 355 10 78 86 93 103 99 95 81 68 58 44 43 50 51 51 60 62 59 60 57 50 48 44 41 47 54 61 66 56 32 9 344 249 214 207 204 202 201 200 202 205 207 208 205 201 201 200 200 201 200 199 200 201 203 205 207 209 211 213 213 213 214 216 217 219 221 222 223 223
303 308 312 301 258 29 351 342 333 323 331 57 83 72 36 351 348 359 13 33 41 50 76 88 88 82 74 60 33 36 52 56 51 52 53 50 54 57 53 51 52 52 47 42 46 52 45 21 348 326 317 279 231 216 212 207 201 202 209 211 211 209 205 202 201 201 201 200 200 200 201 203 205 206 208 210 212 213 215 217 219 220 221 222 224 225 226
278 271 280 301 275 8 337 337 337 321 314 27 73 72 27 333 336 359 20 30 33 33 51 67 68 73 83 76 38 35 50 57 55 56 53 43 39 50 51 46 51 61 54 38 33 34 22 8 351 328 321 309 278 257 241 219 206 207 213 214 213 212 209 205 201 201 201 200 199 200 201 202 204 205 207 208 210 212 214 216 219 221 222 223 225 226 227
272 257 258 287 341 3 336 338 347 334 319 46 66 75 278 311 331 7 25 30 31 25 37 59 63 61 68 66 52 46 46 46 50 55 53 42 37 46 50 39 36 46 42 24 17 18 13 6 353 319 297 304 298 285 274 242 223 218 216 214 213 212 210 206 202 200 200 199 199 200 200 200 202 205 207 207 208 210 213 215 217 219 221 224 226 228 229
281 267 284 315 356 354 339 340 359 1 5 79 73 182 250 321 354 17 22 24 28 27 36 50 55 54 53 48 46 45 41 43 51 51 46 37 30 40 54 43 28 28 31 21 14 16 16 13 5 345 292 273 288 289 281 270 251 233 219 211 210 208 207 206 202 199 199 198 198 198 198 198 200 203 205 207 209 210 211 212 215 217 219 222 225 227 229
276 266 328 30 172 332 341 349 13 23 35 108 166 282 353 18 18 17 16 18 17 22 40 47 42 40 43 41 40 37 34 40 48 48 47 42 23 25 45 39 18 16 26 22 18 18 11 6 4 360 341 267 251 267 283 287 270 235 215 207 205 203 203 204 201 197 197 196 194 195 195 196 199 202 203 205 207 209 210 210 213 215 217 219 222 225 226
321 294 18 61 216 307 351 5 24 36 49 93 96 36 25 24 22 19 15 13 11 19 38 48 43 38 37 37 35 29 26 30 35 35 40 42 29 30 41 30 11 9 11 6 15 26 17 12 12 6 360 327 207 220 345 336 260 203 200 197 197 197 198 200 198 194 193 192 191 192 193 195 198 200 201 202 204 206 207 207 208 211 213 215 218 221 223
324 294 236 231 260 326 9 16 9 25 45 54 49 43 32 17 20 23 12 3 8 17 25 36 46 45 40 37 32 25 20 19 22 25 28 30 27 31 41 31 12 2 354 355 21 38 24 21 22 16 16 34 57 37 18 25 59 144 184 186 187 189 192 194 193 191 190 190 190 191 193 195 197 198 198 200 202 203 204 205 205 207 208 209 211 214 217
330 293 225 181 356 345 352 2 359 12 34 45 43 39 27 13 16 21 9 360 6 13 16 22 31 39 44 41 30 23 20 15 14 15 19 24 23 22 30 29 14 1 350 348 23 45 28 20 20 15 17 28 26 12 2 20 46 69 160 177 181 185 187 189 189 187 186 188 189 191 195 197 197 197 197 197 199 200 200 201 203 203 203 204 206 206 205
342 334 328 6 10 347 336 345 360 10 25 47 53 44 26 15 13 13 8 1 3 12 16 15 13 20 35 37 25 17 17 11 9 11 9 9 7 6 14 17 10 3 353 345 17 47 30 16 9 4 5 15 17 13 3 353 13 59 115 149 164 173 178 183 187 185 182 183 185 186 190 193 194 196 196 196 196 197 198 198 199 199 197 195 195 195 197
321 313 314 321 323 308 305 310 345 24 32 41 46 44 37 25 12 6 9 4 0 6 13 13 9 7 16 27 24 16 10 3 5 7 3 358 349 343 349 7 8 360 355 359 29 47 31 9 356 352 358 9 12 16 16 1 318 118 108 131 146 155 164 172 178 180 179 176 174 172 172 175 182 187 190 191 192 193 195 195 192 189 188 189 190 191 192
308 306 313 321 316 304 316 339 12 31 32 30 32 37 47 42 18 360 3 6 2 0 1 5 7 2 1 15 23 14 2 1 4 358 347 342 335 328 330 351 360 350 354 16 39 44 31 13 356 347 1 14 15 19 27 40 110 133 116 116 126 143 161 169 173 176 174 166 158 151 144 142 145 154 169 179 181 182 187 194 196 197 194 188 177 166 156
294 298 331 8 356 308 326 9 20 23 18 16 23 27 40 55 41 7 355 357 359 357 351 352 3 2 352 356 13 16 4 358 356 347 337 331 325 320 321 332 340 336 347 27 50 46 36 27 9 358 9 24 28 27 34 54 92 111 111 102 94 102 122 136 143 147 145 142 141 140 136 131 123 115 120 142 154 152 154 169 186 194 188 171 156 146 133
305 307 325 350 342 298 315 353 5 27 22 7 9 22 27 37 36 6 350 353 355 352 345 343 357 5 351 347 360 8 360 349 340 329 324 323 318 313 316 323 330 327 326 346 67 58 32 17 5 1 8 20 28 30 40 67 93 107 110 103 90 88 96 101 107 116 122 123 126 129 129 127 123 114 105 105 112 114 115 121 133 142 142 134 133 136 128
306 313 324 333 321 306 323 337 333 349 11 343 335 354 356 344 339 341 1 11 358 349 343 339 344 354 352 349 354 354 344 337 328 320 318 316 309 307 309 309 300 301 315 342 74 59 12 350 359 18 21 13 14 33 56 80 100 109 110 103 95 90 94 98 103 110 116 119 120 121 121 121 122 118 109 101 98 100 103 107 110 115 119 118 117 118 118
298 306 311 311 306 304 313 315 306 306 312 291 281 286 287 293 319 11 46 35 360 349 343 323 322 343 354 341 337 338 332 326 321 318 319 314 304 298 296 292 276 259 153 108 121 153 254 334 41 57 53 36 34 71 96 96 101 108 109 106 103 100 100 102 105 109 115 119 119 120 120 120 120 119 116 112 107 104 104 105 107 108 109 112 113 111 109
287 293 301 300 295 294 300 299 292 296 303 294 282 267 289 328 338 357 33 20 320 322 328 303 300 327 2 329 316 316 316 315 315 313 310 302 294 289 281 269 242 192 174 173 179 178 138 101 85 77 70 54 51 75 104 110 106 106 106 106 106 105 105 105 104 106 113 121 124 125 126 125 124 123 123 123 122 119 114 110 109 108 105 102 103 105 106
279 280 286 288 283 277 273 274 278 285 292 295 297 298 297 314 323 326 334 317 292 282 299 300 294 290 355 320 313 313 310 305 305 305 299 291 290 284 258 219 211 203 192 188 176 150 119 108 108 103 98 96 90 92 103 109 108 105 105 105 104 103 105 106 103 101 107 116 122 126 126 126 127 128 128 128 129 130 128 124 119 114 111 108 103 98 99
268 266 260 261 265 266 266 274 283 289 293 300 310 311 308 311 319 317 322 320 306 296 304 299 290 258 158 298 297 301 306 303 303 307 303 298 298 288 233 195 209 213 195 184 170 148 131 118 114 110 106 106 104 104 105 107 106 104 101 100 100 99 101 105 103 100 102 109 115 117 117 118 124 128 130 130 129 128 130 133 131 125 121 119 113 106 104
252 251 248 248 252 258 263 269 274 278 285 303 313 309 308 313 319 320 323 321 317 323 321 307 302 321 72 311 284 283 296 302 311 319 315 310 309 303 232 199 199 150 108 80 70 81 88 83 72 64 76 111 115 110 107 106 105 102 98 98 100 101 103 105 103 100 100 103 105 105 104 105 108 110 113 118 119 116 117 125 133 136 139 142 140 135 131
239 235 236 241 248 250 248 248 254 258 263 276 287 291 298 305 310 317 323 320 322 330 321 310 322 13 21 352 333 329 318 317 327 336 334 329 326 328 155 166 136 94 72 56 57 62 63 64 58 46 44 79 116 118 112 108 105 102 102 104 109 113 114 111 107 104 102 103 105 105 104 104 104 101 101 106 111 115 120 130 140 149 155 157 155 150 140
224 222 226 229 233 238 240 240 243 246 246 247 253 263 276 288 296 308 314 312 316 320 312 309 339 27 24 21 33 43 43 29 15 13 9 358 350 27 126 125 110 91 72 57 57 63 63 62 58 47 41 55 86 107 113 112 108 102 99 101 107 117 122 116 108 101 95 93 94 94 92 92 95 97 97 95 92 93 103 115 126 131 127 122 125 130 127
218 215 221 224 224 228 233 234 233 236 237 233 234 243 254 263 273 286 295 295 296 303 308 320 8 42 44 50 56 55 54 50 40 35 34 23 10 15 99 106 91 82 78 70 63 65 66 60 55 52 53 59 70 86 105 112 109 99 91 87 88 93 99 99 93 87 82 78 77 75 73 71 70 70 70 68 64 63 65 63 63 69 83 97 109 115 111
287 225 216 213 214 219 223 222 222 226 228 225 226 234 238 240 254 272 278 277 281 296 314 350 67 74 67 64 62 58 56 53 44 35 38 36 24 13 30 88 91 83 77 72 66 68 70 63 55 53 59 66 73 81 93 105 106 98 90 85 82 80 82 82 81 80 76 73 70 68 67 65 63 59 58 58 58 58 56 52 51 55 62 74 91 91 69
6 354 256 205 206 214 217 213 211 214 219 221 223 227 230 232 243 252 254 259 268 281 65 80 86 84 79 73 66 61 57 56 47 33 36 45 38 20 10 23 69 82 75 66 59 61 66 65 58 54 56 64 75 82 86 96 98 94 89 86 81 77 75 74 73 72 71 69 68 66 64 63 61 58 56 56 54 53 51 48 48 50 52 51 53 49 41
16 20 25 37 46 32 351 236 217 208 207 212 216 221 230 236 240 245 250 257 223 134 128 117 95 83 80 76 71 65 59 59 61 54 48 51 53 41 23 7 3 56 71 62 53 55 64 64 61 59 57 58 65 73 80 88 92 90 87 83 79 74 73 72 71 70 69 68 67 65 62 61 59 56 55 54 52 49 48 45 44 45 44 39 37 36 36
15 22 30 36 40 41 36 21 2 349 266 238 233 236 237 233 233 237 232 161 130 133 130 116 98 85 77 74 75 73 67 62 63 64 60 58 59 57 45 18 347 3 59 57 43 47 61 64 62 63 61 57 60 68 75 78 81 82 81 79 77 74 73 72 70 68 66 65 65 63 60 59 58 54 52 51 49 46 45 43 40 39 36 32 31 30 29
18 25 33 36 41 45 42 36 38 42 42 43 40 18 317 255 202 131 106 114 134 138 124 106 96 90 84 81 80 77 71 67 65 65 67 67 62 59 53 31 359 1 39 43 27 36 57 64 62 64 64 60 60 67 72 75 77 78 77 76 75 73 72 71 69 66 64 63 62 62 60 58 56 53 51 50 48 45 43 40 38 35 32 29 29 29 27
24 28 34 36 39 43 40 39 44 47 49 54 51 37 31 42 57 69 72 67 74 108 109 100 93 91 88 84 80 75 69 68 69 65 64 65 64 61 56 39 13 8 22 28 24 34 52 62 63 65 65 63 63 66 71 75 77 76 74 73 72 71 71 71 70 68 66 65 64 64 63 61 60 57 54 52 50 47 45 43 40 37 32 30 30 30 27
28 30 34 35 37 40 38 37 41 42 43 52 54 45 42 48 51 58 68 63 52 69 91 92 88 86 82 78 75 72 66 65 67 66 63 63 65 65 62 49 33 25 27 31 33 39 48 56 61 63 64 64 65 65 68 72 74 73 72 72 72 71 70 71 71 71 69 68 68 68 67 66 64 62 58 56 54 51 49 47 44 40 35 32 31 30 27
33 34 37 37 37 38 36 35 39 40 41 47 52 48 46 49 49 51 60 64 59 63 77 82 82 80 76 74 74 71 66 63 64 66 66 65 64 64 60 50 41 38 38 39 39 41 44 50 56 58 58 61 64 64 65 69 72 72 71 71 71 71 71 71 71 70 68 67 68 68 68 68 67 64 61 59 55 51 49 46 43 40 37 34 33 31 28
41 43 45 44 43 44 42 37 37 41 42 44 47 47 45 46 47 48 53 60 63 66 70 73 77 77 75 76 76 73 69 67 65 64 64 62 60 60 58 47 41 43 48 49 47 45 44 47 50 53 54 58 61 64 66 70 72 72 72 72 72 72 71 70 69 68 68 68 69 68 68 68 67 64 62 60 56 51 49 48 45 42 39 36 34 32 30
42 49 53 51 49 52 51 45 42 44 45 44 44 46 45 43 43 45 50 54 59 62 65 68 74 78 79 79 78 75 71 68 65 63 62 60 57 57 60 52 47 49 52 55 54 52 48 47 48 50 53 57 61 65 69 71 72 72 73 73 72 72 73 72 71 70 70 71 71 70 69 68 66 63 61 60 57 53 50 49 47 44 40 38 36 35 34
40 45 53 56 57 60 63 59 55 53 52 49 48 49 49 45 41 41 44 45 46 50 54 58 63 69 71 73 74 73 70 66 65 65 66 65 62 62 63 61 57 56 57 57 57 56 53 52 52 53 53 55 58 63 68 71 73 74 76 76 76 76 76 75 74 74 72 71 70 69 68 66 65 64 62 60 58 57 54 51 47 44 41 40 39 38 38
46 46 52 60 64 67 72 74 72 70 68 64 61 59 58 54 49 45 45 44 42 41 42 44 49 57 61 63 64 64 63 63 65 67 69 69 67 65 64 63 62 60 61 61 61 61 60 59 59 60 60 59 59 61 64 66 68 72 76 78 79 80 80 79 77 76 75 74 73 71 70 68 67 67 66 62 59 58 55 51 48 46 43 41 40 38 39
43 45 52 61 66 67 68 73 80 86 86 82 76 71 68 65 61 58 56 55 52 47 42 40 40 45 52 58 60 61 61 62 65 69 72 72 69 68 68 66 63 63 66 68 68 66 64 63 63 64 67 67 65 64 64 63 64 66 69 71 75 78 80 82 82 81 80 80 78 76 75 73 71 70 70 68 65 62 59 56 53 50 47 43 40 38 39
39 39 45 54 60 62 65 69 74 79 81 81 79 76 72 70 66 62 60 59 59 57 54 49 45 44 46 51 56 60 61 61 62 67 73 78 80 77 72 67 64 64 66 68 68 68 69 68 67 66 67 67 67 67 66 65 64 66 66 67 68 70 71 74 77 79 81 82 82 82 81 79 75 73 73 74 72 69 66 62 59 55 52 48 45 42 41
38 33 34 45 50 52 59 68 70 67 66 66 67 70 71 70 66 61 58 57 57 56 56 56 54 51 50 51 53 56 59 60 58 59 65 75 83 83 76 69 64 62 62 62 64 66 68 70 70 70 70 69 69 69 67 66 65 66 67 68 69 70 70 71 72 73 75 76 78 81 83 83 79 74 74 76 75 72 68 64 61 58 54 51 48 46 43
27 21 19 32 46 47 48 57 63 64 64 66 67 66 66 69 69 67 64 61 58 54 51 52 54 54 54 56 58 59 61 63 61 57 58 64 72 76 74 70 66 63 61 60 61 63 65 67 68 69 70 71 71 71 70 67 64 65 66 68 70 71 73 75 77 77 77 78 79 80 83 84 81 75 75 78 77 72 68 67 64 59 55 52 49 46 44
33 27 20 24 37 45 48 51 55 57 59 63 64 61 59 59 62 65 67 66 62 56 49 46 48 49 51 56 63 65 66 67 68 66 64 66 69 71 70 69 68 66 63 61 60 60 62 64 64 65 66 67 68 70 72 71 67 64 64 65 67 68 70 74 77 77 75 75 78 80 82 81 75 69 73 82 80 71 66 65 63 58 54 52 50 46 44
45 42 31 22 25 35 41 45 51 60 67 70 69 65 60 54 49 49 57 66 72 69 59 49 45 44 45 49 59 67 68 65 63 61 61 66 73 77 75 73 73 71 68 65 62 61 60 63 65 67 66 66 67 69 72 72 70 66 63 62 63 64 66 69 73 75 73 69 68 70 72 71 65 60 65 76 78 70 64 63 60 55 52 52 50 46 41
49 49 43 34 29 33 39 44 50 56 64 69 71 69 66 60 52 46 45 51 64 78 76 61 50 45 43 44 52 65 69 65 60 57 56 57 62 68 71 74 76 76 72 67 64 62 60 60 64 66 67 67 68 70 72 72 72 70 66 64 63 62 62 62 65 71 73 71 67 64 65 65 63 60 64 70 71 68 66 65 61 58 59 59 55 49 44
59 54 49 43 36 32 33 40 49 53 54 58 64 69 70 66 59 50 45 43 49 63 78 81 73 63 54 49 52 62 68 67 64 63 62 61 60 61 63 67 74 78 76 70 66 65 64 61 59 61 64 66 66 66 68 72 73 71 68 65 64 64 63 62 61 63 67 70 70 66 63 61 59 59 64 69 72 71 70 67 64 64 68 66 58 51 48